Terminal Aerodrome Forecast
Issued by NWS Green Bay, WI

Home | Current Version | Previous Version | Text Only | Print | Product List | Glossary Off
Versions: 1 2 3 4 5 6 7 8 9 10 11 12 13 14 15 16 17 18 19 20 21 22 23 24 25 26 27 28 29 30 31 32 33 34 35 36

000
FTUS43 KGRB 191700
TAFGRB
TAF
KGRB 191732Z 1918/2018 VRB03KT P6SM SCT018
     FM192100 VRB03KT P6SM BKN020
     FM200800 21003KT 5SM BR OVC016=

USA.gov is the U.S. government's official web portal to all federal, state and local government web resources and services.